sat.trackr.live / text

‹ back to catalog

STARLINK-36338

NORAD 67704 · 2026-025M

PAYLOAD ACTIVE UNKNOWN

§ Identity

Operator
Country
US
Launch date
2026-02-07
Launch site
AFWTR
Launch vehicle
Mass (kg)
RCS (m²)

Purposes: comms

External: N2YO · Heavens-Above · Gunter

§ Orbital elements

Epoch: 2026-09-19T06:29:18.654720Z

Period
93.91 min
Inclination
97.2846°
Eccentricity
0.0000235
Mean motion
15.33444730 rev/d
Perigee alt
465.4 km
Apogee alt
465.7 km
Semi-major
6,843.7 km
B*
4.4174e-4
RAAN
12.1331°
Arg perigee
316.3813°
Mean anomaly
43.7411°
Rev number
3,567

§ Raw data

STARLINK-363381 67704U 26025M   26262.27035480  .00014213  00000+0  44174-3 0  99992 67704  97.2846  12.1331 0000235 316.3813  43.7411 15.33444730 35673

JSON: /api/v1/satellites/67704 · /tle

For live sub-satellite position, see the globe view (requires WebGL).

§ Visibility from observer

Set your observer location to see the next 7 days of passes ≥ 10°. The values pass through the URL so the page stays shareable.

No JS? Fill the form by hand. The geolocation button needs JavaScript.